Location: Vaughan
(31.9146°N, 97.1736°W)
Time: 02:20:42
(UTC+00:00)

COSMOS 2406 - Pass Details

Date: 10 December 2025
Orbit: 844 x 860 km, 71.0° (Epoch: 12 January)

Event Time Altitude Azimuth Distance (km) Brightness Sun altitude
Exits shadow 11:44:12 32° 311° (NW) 1,410 3.9 -19.5°
Drops below altitude 10° 11:48:34 10° 360° (N) 2,467 5.5 -18.6°
Sets 11:51:16 0° 10° (N) 3,406 6.3 -18.0°
